Weather in Moscow (North)

Russia / Moscow Oblast     55°55′01″N   37°34′58″E
temp.,
°C
wind,
m/s
gust,
m/s
humid.,
%
clouds,
%
prec.,
mm/h
press.,
hPa
HPBL,
m
1 march, mon
mon100:00−7ne129460 0.0 102121
03:00−9nnw019456 0.0 102321
06:00−8wsw129573 0.0 102321
09:00−5w249681 0.1 1024204
12:00−2wsw469167 0.0 1023400
15:000w599481 0.0 1021652
18:00+1wsw51191100 0.0 1019524
21:00+1w51393100 0.0 1017670
2 march, tue
tue200:00+1w51391100 0.0 1014594
03:00+1wnw61292100 0.0 1013863
06:00+1w51293100 0.0 1010694
09:00+1nw41091100 0.2 1010768
12:00+1nw5990100 0.1 1009838
15:00+1nw5108999 0.3 1008960
18:00−1nw5118558 0.1 1008669
21:00−1nnw6128779 0.2 1011967
3 march, wed
wed300:00−3nw5129394 0.1 1012856
03:00−4nnw5128696 0.2 1014856
06:00−5nnw5138835 0.0 1015819
09:00−4nw5128338 0.0 1017891
12:00−1wnw598524 0.0 1017716
15:00−1wnw698561 0.1 1016847
18:00−1wnw51084100 0.1 1014794
21:00−1wnw51087100 0.1 1014786
4 march, thu
thu400:00−2wsw41191100 0.1 1011800
03:00−1wsw71491100 0.1 1007754
06:00−1wsw71587100 0.1 1003765
09:00−1w71488100 0.1 10011027
12:000w7129099 0.1 9991017
15:00+1wsw71295100 0.4 999871
18:00−2wnw3980100 1.9 1000817
21:00−4nw31088100 1.9 1002430
5 march, fri
fri500:00−6nw38930 0.0 1004266
03:00−7nw379429 0.0 1006261
06:00−9nw239543 0.0 100885
09:00−8nw239221 0.0 1009168
12:00−4wnw12740 0.0 1010637
15:00−3w126710 0.0 1011861
18:00−6wsw118241 0.0 101121
21:00−8w018658 0.0 101221